Temp
-14 -14 -14 -13 -13 -13 -13 -12 -12 -13 -12 -13 -12 -12 -12 -13 -12 -13 -13 -13 -13 -13 -13 -13 -13 -14 -14 -14 -14 -14 -14 -14 -14 -15 -15 -15 -15 -15 -16 -16 -16 -16 -16 -16
-13 -13 -13 -13 -12 -12 -12 -12 -12 -12 -12 -12 -12 -12 -12 -12 -13 -13 -13 -13 -13 -13 -13 -13 -14 -14 -14 -15 -15 -15 -15 -15 -16 -16 -16 -16 -16 -16 -16 -17 -17 -17 -17 -17
-13 -13 -13 -13 -12 -12 -12 -12 -12 -12 -12 -12 -12 -13 -13 -13 -13 -13 -13 -14 -14 -14 -15 -15 -15 -15 -16 -16 -16 -16 -16 -16 -17 -17 -17 -17 -17 -17 -17 -17 -18 -18 -18 -18
-13 -13 -13 -13 -13 -12 -12 -12 -12 -12 -13 -12 -12 -12 -12 -13 -14 -14 -14 -15 -15 -15 -16 -16 -16 -16 -16 -17 -17 -17 -17 -17 -17 -17 -17 -18 -18 -18 -18 -18 -18 -18 -19 -19
-13 -13 -13 -13 -13 -13 -12 -12 -13 -13 -12 -13 -13 -13 -13 -14 -14 -14 -15 -15 -16 -16 -16 -16 -16 -17 -17 -17 -17 -17 -17 -17 -18 -18 -18 -19 -18 -19 -19 -19 -20 -20 -20 -20
-13 -13 -12 -12 -12 -12 -12 -12 -13 -13 -13 -14 -14 -14 -15 -15 -15 -15 -15 -16 -16 -17 -17 -17 -17 -18 -18 -18 -18 -18 -18 -19 -19 -19 -19 -19 -19 -20 -20 -21 -20 -20 -21 -21
-13 -13 -13 -13 -13 -12 -12 -13 -13 -13 -13 -13 -14 -14 -14 -15 -15 -16 -17 -16 -17 -17 -17 -18 -18 -18 -18 -19 -19 -19 -19 -19 -20 -20 -20 -20 -21 -21 -21 -21 -21 -21 -21 -22
-12 -13 -12 -12 -11 -11 -12 -12 -12 -12 -13 -13 -13 -14 -15 -16 -17 -17 -17 -18 -18 -18 -18 -18 -18 -19 -19 -19 -19 -20 -20 -20 -21 -21 -22 -22 -22 -22 -22 -22 -22 -22 -23 -23
-12 -12 -12 -12 -12 -12 -12 -12 -12 -13 -13 -13 -14 -15 -15 -17 -18 -18 -18 -18 -18 -18 -18 -19 -19 -19 -20 -20 -21 -21 -21 -21 -22 -22 -22 -22 -22 -23 -23 -23 -23 -23 -23 -23
-12 -13 -13 -13 -13 -12 -13 -13 -13 -13 -13 -14 -15 -16 -17 -18 -19 -19 -19 -19 -19 -19 -19 -20 -20 -21 -21 -21 -21 -22 -22 -23 -23 -23 -23 -23 -23 -24 -24 -24 -24 -24 -24 -24
-13 -13 -13 -14 -13 -13 -13 -14 -14 -14 -15 -16 -17 -18 -19 -19 -20 -20 -20 -20 -20 -20 -21 -21 -21 -22 -22 -22 -22 -22 -23 -23 -23 -24 -24 -24 -24 -24 -24 -24 -25 -25 -25 -25
-13 -13 -14 -14 -14 -14 -14 -15 -15 -15 -17 -18 -19 -20 -20 -20 -21 -21 -21 -21 -21 -21 -22 -22 -22 -23 -23 -23 -23 -23 -24 -24 -24 -24 -24 -24 -24 -25 -25 -25 -26 -26 -27 -27
-14 -14 -15 -15 -15 -15 -15 -16 -16 -17 -18 -19 -20 -21 -21 -21 -22 -22 -22 -22 -22 -22 -23 -23 -23 -23 -23 -24 -24 -24 -24 -24 -24 -24 -25 -25 -25 -25 -25 -26 -27 -27 -28 -28
-15 -15 -16 -16 -16 -17 -17 -17 -18 -19 -20 -20 -21 -22 -22 -22 -23 -23 -23 -23 -23 -23 -23 -24 -24 -24 -24 -24 -24 -25 -25 -25 -25 -25 -25 -25 -26 -26 -27 -27 -28 -28 -29 -30
-16 -16 -17 -17 -18 -18 -19 -19 -19 -20 -20 -21 -22 -22 -22 -23 -23 -23 -23 -23 -23 -24 -24 -24 -24 -24 -24 -24 -24 -25 -25 -25 -25 -26 -26 -27 -27 -28 -28 -29 -29 -29 -30 -30
-18 -18 -18 -19 -19 -20 -20 -20 -20 -21 -21 -22 -22 -23 -23 -23 -23 -23 -23 -24 -24 -24 -24 -24 -24 -24 -24 -25 -25 -25 -25 -26 -26 -27 -28 -28 -29 -29 -30 -30 -31 -31 -31 -31
-19 -19 -20 -20 -20 -21 -21 -21 -22 -22 -22 -22 -23 -23 -23 -23 -23 -24 -24 -24 -24 -24 -25 -24 -24 -25 -25 -25 -26 -26 -26 -27 -28 -28 -29 -30 -30 -31 -31 -31 -31 -31 -31 -31
-20 -20 -21 -21 -21 -21 -22 -22 -22 -23 -23 -23 -23 -23 -23 -23 -24 -24 -24 -24 -24 -25 -25 -25 -25 -25 -26 -26 -27 -27 -28 -29 -29 -30 -30 -31 -31 -31 -32 -32 -32 -31 -31 -32
-21 -21 -21 -22 -22 -22 -22 -23 -23 -23 -23 -24 -24 -24 -24 -24 -24 -24 -24 -24 -25 -25 -25 -25 -26 -26 -27 -27 -28 -29 -29 -30 -30 -31 -31 -31 -31 -32 -32 -32 -32 -32 -32 -32
-22 -22 -22 -22 -22 -23 -23 -23 -23 -23 -24 -24 -24 -24 -24 -24 -24 -24 -25 -25 -25 -25 -25 -26 -27 -27 -29 -29 -30 -30 -31 -31 -31 -32 -32 -32 -32 -32 -32 -32 -32 -32 -32 -32
-23 -23 -23 -23 -23 -23 -23 -23 -24 -24 -24 -24 -24 -24 -24 -25 -25 -25 -25 -25 -25 -26 -26 -27 -28 -29 -30 -30 -30 -30 -31 -31 -32 -32 -32 -32 -32 -32 -32 -32 -32 -32 -32 -31
-23 -23 -23 -23 -23 -23 -23 -24 -24 -24 -24 -24 -24 -25 -25 -25 -25 -25 -25 -26 -26 -27 -28 -29 -30 -30 -31 -31 -31 -31 -31 -32 -32 -32 -33 -33 -33 -32 -32 -32 -32 -32 -31 -31
-24 -24 -24 -24 -24 -24 -24 -24 -25 -25 -25 -24 -25 -25 -25 -25 -25 -26 -26 -27 -28 -29 -29 -30 -30 -31 -31 -31 -32 -32 -33 -33 -33 -33 -33 -33 -33 -32 -32 -32 -32 -31 -31 -31
-24 -24 -24 -24 -24 -25 -25 -25 -25 -25 -25 -25 -25 -25 -25 -26 -26 -27 -28 -29 -29 -30 -30 -31 -31 -31 -32 -32 -33 -34 -34 -34 -34 -34 -34 -34 -33 -33 -32 -32 -31 -31 -31 -30
-25 -25 -25 -25 -25 -25 -25 -25 -25 -25 -25 -25 -26 -26 -26 -26 -27 -28 -30 -30 -30 -30 -31 -31 -32 -32 -32 -34 -34 -35 -34 -34 -34 -34 -33 -33 -32 -32 -32 -31 -31 -31 -30 -30
-26 -25 -25 -25 -26 -25 -26 -26 -25 -26 -26 -26 -26 -26 -27 -28 -29 -30 -30 -30 -31 -31 -31 -31 -32 -33 -33 -34 -34 -34 -34 -34 -33 -33 -32 -32 -32 -32 -31 -31 -31 -30 -30 -30
-26 -26 -26 -26 -26 -26 -26 -26 -26 -26 -26 -26 -27 -27 -28 -29 -30 -30 -31 -31 -31 -31 -31 -32 -32 -32 -33 -33 -33 -33 -33 -32 -32 -32 -32 -32 -32 -32 -31 -31 -30 -30 -31 -31
Height
5730 5733 5736 5739 5742 5744 5746 5747 5748 5747 5748 5746 5743 5743 5740 5737 5734 5731 5727 5723 5719 5715 5710 5706 5701 5697 5693 5689 5685 5680 5676 5671 5667 5663 5659 5655 5650 5646 5642 5639 5635 5631 5626 5622
5731 5734 5736 5738 5740 5742 5743 5742 5743 5742 5741 5740 5738 5735 5732 5728 5724 5719 5714 5710 5705 5701 5696 5692 5687 5683 5678 5674 5670 5665 5661 5657 5653 5648 5644 5640 5636 5631 5627 5623 5619 5614 5609 5604
5729 5731 5733 5736 5736 5736 5737 5737 5737 5735 5734 5732 5729 5726 5722 5719 5715 5711 5706 5701 5696 5691 5686 5681 5676 5671 5666 5661 5656 5651 5646 5642 5637 5633 5629 5625 5620 5615 5611 5607 5602 5597 5592 5587
5730 5731 5733 5733 5732 5732 5732 5731 5730 5728 5725 5723 5719 5715 5710 5706 5702 5697 5692 5688 5683 5679 5674 5668 5662 5658 5653 5648 5643 5638 5633 5627 5622 5618 5614 5608 5603 5599 5595 5590 5585 5580 5574 5568
5729 5730 5731 5730 5729 5727 5725 5726 5724 5721 5718 5714 5710 5706 5700 5697 5691 5685 5679 5673 5668 5662 5657 5653 5648 5642 5637 5632 5627 5622 5617 5612 5608 5603 5598 5592 5588 5583 5579 5574 5568 5562 5556 5550
5725 5725 5724 5725 5724 5722 5721 5718 5716 5712 5708 5704 5699 5694 5690 5684 5677 5671 5666 5660 5654 5648 5643 5638 5632 5627 5622 5617 5612 5607 5602 5596 5591 5586 5581 5577 5572 5568 5562 5555 5551 5545 5540 5533
5718 5717 5717 5715 5712 5711 5710 5710 5704 5699 5695 5691 5686 5681 5675 5668 5662 5656 5650 5644 5638 5633 5627 5622 5617 5611 5606 5601 5596 5591 5586 5580 5574 5569 5565 5560 5556 5549 5544 5538 5533 5527 5522 5515
5711 5710 5709 5707 5705 5704 5701 5696 5693 5688 5683 5678 5672 5664 5657 5651 5644 5639 5634 5629 5624 5618 5612 5606 5601 5594 5589 5584 5579 5575 5569 5564 5559 5554 5549 5543 5538 5533 5527 5521 5516 5510 5504 5499
5706 5705 5702 5698 5696 5693 5690 5686 5681 5676 5669 5663 5656 5649 5641 5633 5627 5622 5616 5611 5605 5600 5595 5590 5585 5579 5574 5569 5564 5559 5555 5550 5544 5539 5533 5528 5523 5517 5512 5505 5498 5493 5486 5480
5697 5697 5692 5689 5686 5683 5679 5674 5668 5662 5656 5648 5641 5633 5625 5619 5613 5607 5601 5596 5591 5585 5580 5575 5570 5565 5560 5555 5551 5546 5541 5535 5529 5525 5520 5514 5509 5503 5496 5488 5481 5475 5467 5459
5689 5685 5681 5678 5674 5669 5664 5659 5654 5648 5642 5634 5626 5619 5612 5606 5601 5595 5590 5584 5579 5573 5568 5563 5558 5553 5548 5544 5539 5535 5529 5523 5518 5512 5507 5501 5495 5488 5480 5471 5460 5452 5444 5435
5675 5670 5668 5663 5660 5656 5651 5646 5639 5633 5624 5617 5611 5606 5600 5595 5590 5585 5579 5574 5569 5563 5557 5552 5547 5542 5537 5532 5528 5523 5517 5510 5504 5498 5492 5485 5478 5472 5462 5452 5443 5433 5422 5412
5663 5657 5653 5649 5645 5641 5637 5632 5625 5618 5612 5606 5600 5594 5589 5584 5579 5573 5568 5564 5559 5553 5548 5543 5537 5531 5525 5520 5515 5508 5501 5496 5489 5483 5475 5466 5458 5450 5443 5438 5425 5415 5403 5393
5648 5643 5639 5634 5631 5626 5621 5616 5610 5604 5599 5593 5588 5583 5578 5573 5567 5562 5558 5553 5548 5543 5536 5531 5525 5520 5512 5508 5502 5494 5487 5479 5471 5464 5455 5446 5437 5428 5419 5410 5403 5399 5391 5375
5634 5630 5626 5621 5616 5613 5608 5603 5597 5592 5587 5581 5576 5572 5567 5562 5556 5552 5547 5542 5537 5531 5525 5518 5512 5506 5499 5493 5485 5477 5469 5461 5451 5443 5434 5425 5416 5407 5398 5389 5381 5373 5367 5361
5620 5617 5614 5610 5605 5601 5596 5591 5586 5581 5576 5571 5567 5562 5557 5552 5547 5542 5536 5532 5527 5521 5513 5505 5497 5490 5482 5474 5465 5456 5447 5438 5429 5420 5412 5402 5393 5385 5377 5369 5362 5355 5349 5341
5608 5606 5602 5599 5595 5590 5585 5580 5575 5571 5566 5562 5557 5553 5547 5542 5536 5530 5524 5518 5512 5505 5496 5487 5481 5472 5462 5452 5442 5433 5424 5415 5405 5396 5387 5380 5373 5366 5360 5353 5347 5341 5334 5326
5596 5593 5590 5587 5583 5580 5575 5570 5566 5561 5556 5551 5547 5541 5536 5530 5524 5518 5512 5506 5498 5489 5478 5469 5460 5451 5441 5429 5418 5409 5400 5391 5382 5375 5369 5363 5357 5351 5345 5339 5333 5326 5320 5314
5583 5580 5578 5575 5572 5568 5563 5559 5555 5550 5545 5540 5535 5529 5523 5518 5512 5505 5498 5490 5482 5471 5463 5451 5439 5428 5418 5406 5395 5387 5380 5372 5366 5360 5354 5349 5343 5337 5331 5325 5319 5313 5307 5302
5571 5568 5566 5563 5559 5554 5550 5546 5542 5537 5532 5527 5522 5516 5511 5504 5497 5490 5482 5472 5461 5449 5440 5429 5417 5406 5395 5387 5378 5371 5363 5356 5350 5345 5339 5333 5328 5323 5317 5312 5306 5301 5296 5294
5558 5555 5553 5550 5546 5542 5538 5534 5529 5524 5519 5513 5508 5502 5497 5489 5481 5473 5463 5454 5442 5429 5417 5406 5395 5387 5379 5372 5364 5356 5348 5341 5334 5329 5324 5319 5314 5309 5304 5300 5295 5291 5289 5287
5546 5544 5540 5537 5533 5529 5525 5520 5516 5511 5505 5499 5493 5487 5481 5473 5465 5456 5443 5430 5422 5408 5398 5389 5379 5370 5363 5355 5347 5340 5332 5325 5319 5314 5309 5304 5300 5296 5292 5289 5287 5285 5283 5280
5533 5530 5526 5523 5519 5515 5511 5507 5502 5497 5491 5485 5478 5471 5464 5456 5446 5435 5427 5413 5401 5390 5381 5372 5362 5355 5346 5339 5331 5324 5318 5312 5307 5302 5296 5291 5286 5284 5283 5282 5281 5279 5277 5274
5517 5514 5512 5509 5505 5502 5497 5492 5487 5481 5476 5469 5462 5454 5447 5440 5429 5413 5403 5394 5385 5376 5366 5356 5348 5338 5329 5321 5314 5309 5305 5300 5295 5289 5285 5281 5279 5279 5279 5278 5276 5273 5271 5269
5503 5501 5498 5495 5492 5488 5483 5478 5473 5466 5460 5454 5446 5436 5428 5419 5409 5399 5388 5380 5371 5362 5354 5343 5332 5321 5310 5303 5299 5295 5293 5290 5287 5284 5281 5279 5278 5277 5275 5273 5271 5269 5267 5266
5490 5488 5484 5481 5477 5473 5469 5463 5458 5452 5445 5439 5430 5420 5411 5401 5392 5384 5376 5368 5359 5350 5341 5330 5319 5310 5303 5296 5292 5289 5288 5287 5285 5283 5281 5279 5277 5275 5272 5270 5268 5266 5266 5266
5476 5472 5470 5466 5462 5458 5454 5448 5443 5437 5429 5421 5414 5405 5397 5389 5381 5373 5366 5358 5350 5342 5334 5326 5317 5310 5304 5299 5295 5293 5290 5288 5285 5283 5280 5278 5275 5273 5270 5268 5267 5266 5266 5265
Wind_Speed
9 10 12 15 18 19 20 24 24 27 27 29 35 34 37 39 42 44 46 47 48 49 50 51 53 53 53 53 53 54 54 54 54 54 54 55 55 56 57 58 59 61 62 64
8 8 9 12 13 15 17 20 20 23 26 30 34 37 40 44 45 46 47 48 48 49 50 51 51 52 53 54 54 55 55 56 56 56 56 57 58 59 60 61 62 64 66 68
8 8 8 11 13 15 19 22 25 28 31 32 35 38 41 44 48 50 52 53 53 52 53 53 54 54 54 54 55 56 56 57 57 58 59 60 61 62 63 64 65 66 67 68
5 6 8 11 15 17 20 23 26 29 32 33 36 40 43 44 45 47 48 49 51 52 52 53 53 54 55 57 58 58 59 59 59 59 60 61 62 63 63 64 64 65 66 66
6 8 10 12 16 19 22 24 27 30 33 38 41 44 48 49 51 53 53 53 54 54 54 55 56 57 58 58 59 59 60 61 61 61 61 62 63 63 63 62 63 64 65 65
12 14 16 18 23 26 28 32 34 38 42 44 46 49 50 53 56 57 59 58 57 57 57 57 56 57 58 59 59 60 59 58 58 59 61 61 61 60 61 62 62 63 63 63
18 22 23 26 30 35 37 40 45 49 52 55 57 59 61 61 61 61 60 60 62 62 61 62 61 61 60 57 55 54 54 56 57 59 58 58 57 59 62 62 61 61 61 60
30 33 34 34 38 41 44 47 52 56 60 63 65 65 66 65 64 63 63 63 64 65 65 64 62 60 58 57 56 55 54 55 56 55 55 56 59 59 59 59 59 59 60 61
33 33 38 43 47 50 54 57 59 63 66 68 67 67 69 67 65 64 62 61 59 58 57 55 55 54 52 52 52 53 53 52 52 53 55 56 56 55 56 59 61 62 65 67
37 37 43 47 51 55 58 61 62 66 68 68 68 67 65 61 57 56 53 52 52 52 51 50 49 49 48 49 48 46 48 50 52 53 53 54 55 58 61 64 66 68 71 74
44 45 50 48 53 56 60 61 64 65 67 66 63 59 56 53 52 51 51 51 50 48 45 44 44 44 44 44 44 45 47 49 51 53 55 58 60 63 66 68 73 76 78 82
48 51 52 53 56 59 62 62 63 63 61 59 55 52 50 47 44 44 43 43 44 43 42 43 43 43 43 45 46 48 50 53 55 57 58 62 67 70 71 73 74 75 77 81
52 55 54 56 57 56 59 58 58 56 54 53 49 46 45 44 45 44 42 41 40 40 41 42 44 45 48 49 49 52 55 57 60 64 68 72 75 77 77 74 75 77 78 80
50 53 51 50 51 54 54 53 52 50 49 48 45 44 44 41 38 38 38 39 39 40 43 45 47 49 53 53 55 59 62 63 68 71 73 76 78 79 79 79 79 77 73 71
52 53 52 48 48 49 49 49 47 47 45 43 39 35 33 33 35 37 39 42 43 45 47 51 54 56 60 62 65 68 70 72 75 78 79 78 78 78 77 75 73 71 67 62
47 46 44 43 45 46 46 44 43 42 39 35 31 30 31 33 37 41 43 45 47 50 54 59 63 62 62 67 71 74 78 80 82 82 81 80 77 72 68 66 63 62 61 61
42 40 41 42 42 42 41 40 40 39 38 36 35 37 39 39 41 44 45 48 52 53 59 65 66 69 73 77 82 85 86 86 84 81 75 69 64 61 58 57 59 59 59 55
39 39 41 41 41 38 38 39 39 40 41 41 42 45 46 46 48 49 51 54 58 62 69 72 74 76 80 84 88 88 83 75 68 63 59 56 53 53 54 56 57 57 52 48
39 39 40 40 40 38 39 40 42 44 46 46 48 49 49 50 53 56 58 61 67 72 74 78 81 85 87 83 76 68 63 60 58 55 53 52 52 53 55 56 54 49 46 37
38 38 40 43 43 40 40 42 45 46 47 48 50 51 52 55 59 62 65 68 74 79 81 85 87 80 71 66 63 62 61 60 58 55 53 53 54 54 52 48 46 43 33 25
40 44 44 43 44 45 46 46 47 48 50 50 52 55 58 61 64 66 69 74 80 85 88 82 73 68 63 59 57 58 58 57 55 54 52 51 48 45 43 42 38 27 23 28
41 43 43 45 46 46 47 46 47 49 51 54 57 59 61 62 64 69 76 82 86 84 75 67 64 61 56 57 59 59 56 52 48 45 44 44 44 42 38 32 22 22 26 26
44 42 43 42 41 43 46 48 51 53 55 58 60 60 63 66 72 77 81 82 76 69 66 63 59 57 58 61 61 55 49 46 44 46 47 44 37 29 22 16 20 23 22 20
45 41 39 42 41 42 46 50 53 55 57 59 61 65 69 72 78 82 76 68 65 62 61 60 60 62 65 64 56 49 46 45 44 36 29 23 17 12 14 18 19 19 18 16
40 42 46 42 42 45 47 49 52 55 57 61 65 70 74 80 79 67 60 59 58 60 60 60 63 63 55 46 40 38 36 29 25 20 14 11 12 14 16 17 17 16 12 8
42 43 42 44 45 48 50 53 56 60 62 65 69 75 78 70 60 56 56 55 58 58 57 51 42 37 32 27 23 19 17 15 12 13 13 13 14 15 16 15 14 10 5 4
45 45 42 48 52 55 56 60 61 64 66 69 74 71 63 55 51 52 51 54 50 42 29 27 27 26 24 21 18 15 14 14 15 14 15 16 16 15 15 11 7 4 3 4
Wind_Direction
170 185 201 213 225 235 247 253 262 267 271 274 278 284 285 286 287 287 286 286 285 284 285 285 286 288 289 290 289 289 288 288 288 288 289 289 289 288 288 289 289 288 288 288
191 211 228 243 251 259 266 272 278 279 278 283 283 284 284 284 285 286 287 287 286 285 283 281 281 282 283 285 286 286 286 287 287 288 289 289 289 290 290 289 289 289 288 288
192 201 217 238 252 257 264 270 275 277 280 282 286 288 289 289 289 290 290 290 290 290 290 290 289 287 286 286 286 286 287 287 288 289 289 289 289 288 289 289 289 290 291 292
261 261 260 264 272 276 279 282 286 289 291 293 292 292 291 292 293 293 294 294 294 294 293 292 291 290 291 291 290 290 290 289 289 289 289 289 289 291 292 294 295 295 295 295
299 297 291 283 281 281 282 286 291 293 294 295 295 295 294 297 296 296 294 294 294 294 294 294 294 293 293 292 292 292 292 292 292 293 293 291 293 294 296 297 295 294 294 293
308 305 301 301 300 299 303 301 304 307 306 304 303 300 297 296 294 292 291 291 291 291 291 291 290 290 290 291 291 291 291 292 292 290 291 293 295 297 297 294 295 295 294 294
317 314 311 312 314 316 312 313 314 313 311 310 308 306 304 299 295 292 289 288 290 291 294 296 296 297 296 295 294 292 289 289 289 291 293 296 298 294 293 295 295 295 295 294
316 315 313 313 313 314 313 310 308 308 308 308 307 305 301 298 295 294 294 294 294 294 295 296 296 295 294 293 291 290 289 289 292 295 296 294 294 296 297 297 296 295 294 295
309 314 316 317 316 312 311 311 310 310 310 309 305 302 299 298 299 299 299 298 298 297 297 296 295 294 293 291 290 290 293 293 294 295 295 296 297 297 297 297 297 297 297 297
308 318 316 315 312 311 310 308 307 308 308 304 302 299 300 301 301 301 302 302 301 300 299 298 296 294 292 292 293 292 292 293 293 296 298 299 300 300 300 299 299 300 301 301
313 313 312 312 312 310 309 308 307 307 304 300 299 300 301 301 302 303 304 304 303 303 303 302 300 298 295 295 296 298 298 299 299 300 301 302 303 304 303 303 303 304 304 304
307 309 313 313 313 311 308 307 306 305 301 300 300 300 301 302 304 303 304 304 303 304 304 303 303 303 303 302 302 302 301 301 302 302 302 302 305 307 306 305 305 305 306 306
307 310 310 310 310 308 307 306 302 299 298 297 297 298 300 301 302 304 304 304 305 307 307 306 305 305 305 304 306 305 303 302 303 305 305 304 304 304 303 303 305 306 307 307
307 309 306 306 306 306 305 301 299 298 297 295 296 297 299 303 304 304 304 306 308 309 309 309 307 305 303 305 305 303 301 299 301 303 303 302 302 302 303 304 304 305 304 304
304 304 305 304 302 302 300 299 298 297 296 296 297 299 302 305 305 304 307 308 309 308 306 306 305 306 306 305 302 301 302 300 300 301 302 302 303 303 304 303 303 304 305 307
297 299 299 298 298 297 298 299 299 299 299 299 296 301 306 307 306 306 306 307 308 307 306 305 304 304 304 304 303 302 301 300 301 303 304 303 303 302 301 301 302 305 308 308
292 293 294 296 297 298 299 302 304 303 300 297 296 303 303 302 304 307 306 308 310 305 308 311 310 306 304 301 300 300 301 302 303 303 303 301 301 300 301 302 305 307 307 308
286 290 294 295 295 294 296 298 301 301 302 300 300 302 302 301 302 306 308 308 312 309 308 308 306 303 301 300 301 302 304 304 303 303 302 302 301 302 302 303 305 306 307 307
284 290 293 294 292 290 294 296 297 297 296 297 299 299 299 297 301 304 308 308 309 309 308 306 304 303 303 304 305 306 307 306 304 303 302 301 300 300 301 302 303 305 305 304
287 289 292 295 287 290 295 299 297 296 297 297 297 299 299 299 301 304 307 308 309 308 307 305 305 306 306 307 308 307 306 304 302 301 299 298 298 300 302 303 303 304 302 296
282 289 293 293 291 293 295 297 295 295 296 296 297 299 299 299 303 305 307 308 307 306 307 307 307 307 307 306 307 308 306 302 298 296 296 298 299 300 301 301 302 298 295 301
291 288 289 291 291 290 291 292 293 294 296 298 299 298 299 301 303 306 306 306 307 308 307 307 307 306 305 309 311 311 308 306 304 303 302 301 301 300 299 299 293 296 302 305
296 292 288 287 288 292 292 293 294 296 298 299 299 299 302 304 305 305 306 309 309 308 309 309 307 306 307 310 310 308 308 307 307 306 304 303 301 297 295 292 298 302 307 311
288 284 280 284 291 294 295 296 297 299 299 300 301 302 304 306 306 309 310 309 310 312 312 311 308 307 308 307 304 302 304 307 309 310 310 307 306 303 303 306 308 313 316 317
282 281 283 288 293 296 297 299 299 300 301 303 304 305 306 306 310 311 310 313 314 314 315 312 310 309 310 309 308 307 309 313 315 319 326 333 325 319 317 318 320 320 318 320
284 286 285 289 292 297 301 303 302 302 303 304 304 304 307 311 311 312 314 315 317 317 317 319 322 326 329 330 330 332 329 327 336 339 334 332 330 328 328 327 326 326 322 322
276 281 292 296 298 296 297 300 301 301 301 303 303 308 310 310 312 314 315 317 319 324 336 351 359 3 4 6 7 5 356 347 339 335 336 334 332 333 334 332 332 323 327 323